QPF
0.00 0.00 0.00 0.00 0.00 0.00 0.00 0.00 0.00 0.01 0.01 0.01 0.01 0.01 0.01 0.00 0.00 0.00 0.01 0.01 0.02 0.02 0.01 0.01 0.00 0.00 0.01 0.05 0.09 0.09 0.08 0.06 0.04 0.03 0.04 0.03 0.03 0.05 0.06 0.06 0.05 0.04 0.04 0.04
0.00 0.00 0.00 0.00 0.00 0.00 0.00 0.00 0.00 0.01 0.01 0.01 0.01 0.01 0.01 0.01 0.00 0.00 0.01 0.02 0.02 0.01 0.01 0.01 0.00 0.01 0.03 0.09 0.12 0.11 0.09 0.06 0.04 0.05 0.05 0.05 0.07 0.08 0.07 0.07 0.06 0.05 0.04 0.04
0.00 0.00 0.00 0.00 0.00 0.00 0.00 0.00 0.00 0.00 0.01 0.01 0.01 0.01 0.01 0.01 0.00 0.01 0.01 0.01 0.01 0.01 0.01 0.02 0.01 0.02 0.04 0.06 0.07 0.08 0.08 0.07 0.06 0.06 0.06 0.07 0.07 0.06 0.06 0.06 0.06 0.07 0.07 0.06
0.00 0.00 0.00 0.00 0.00 0.00 0.00 0.00 0.00 0.00 0.00 0.01 0.00 0.00 0.00 0.00 0.00 0.00 0.01 0.01 0.01 0.01 0.01 0.02 0.02 0.02 0.03 0.03 0.03 0.03 0.08 0.08 0.06 0.06 0.06 0.07 0.10 0.11 0.07 0.07 0.08 0.09 0.10 0.09
0.00 0.00 0.00 0.00 0.00 0.00 0.00 0.00 0.00 0.00 0.00 0.00 0.00 0.00 0.00 0.00 0.00 0.01 0.01 0.01 0.01 0.01 0.01 0.03 0.03 0.03 0.02 0.02 0.03 0.03 0.05 0.06 0.05 0.05 0.07 0.09 0.11 0.09 0.05 0.04 0.04 0.05 0.07 0.07
0.00 0.00 0.00 0.00 0.00 0.00 0.00 0.00 0.00 0.00 0.00 0.00 0.00 0.00 0.00 0.00 0.00 0.00 0.00 0.01 0.01 0.01 0.03 0.06 0.03 0.03 0.02 0.02 0.02 0.03 0.03 0.04 0.06 0.06 0.06 0.05 0.04 0.03 0.02 0.02 0.02 0.04 0.05 0.05
0.00 0.00 0.00 0.00 0.00 0.00 0.00 0.00 0.00 0.00 0.00 0.00 0.00 0.00 0.00 0.00 0.00 0.00 0.00 0.01 0.01 0.01 0.03 0.07 0.06 0.02 0.02 0.01 0.01 0.02 0.03 0.04 0.06 0.07 0.07 0.06 0.04 0.02 0.02 0.02 0.02 0.03 0.04 0.04
0.00 0.00 0.00 0.00 0.00 0.00 0.00 0.00 0.00 0.00 0.00 0.00 0.00 0.00 0.00 0.00 0.00 0.00 0.01 0.02 0.03 0.03 0.02 0.03 0.04 0.01 0.02 0.02 0.02 0.02 0.03 0.06 0.11 0.15 0.13 0.08 0.06 0.03 0.02 0.02 0.02 0.03 0.03 0.04
0.00 0.00 0.00 0.00 0.00 0.00 0.00 0.00 0.00 0.00 0.00 0.00 0.00 0.00 0.01 0.00 0.00 0.01 0.01 0.02 0.02 0.02 0.02 0.01 0.01 0.01 0.02 0.03 0.04 0.05 0.09 0.11 0.11 0.14 0.13 0.08 0.05 0.04 0.04 0.03 0.02 0.01 0.02 0.04
0.00 0.00 0.00 0.00 0.00 0.00 0.00 0.00 0.00 0.00 0.00 0.00 0.00 0.00 0.01 0.01 0.01 0.01 0.01 0.01 0.01 0.01 0.02 0.02 0.02 0.02 0.01 0.02 0.04 0.06 0.07 0.09 0.11 0.10 0.08 0.06 0.04 0.05 0.04 0.03 0.03 0.02 0.03 0.03
0.00 0.00 0.00 0.00 0.00 0.00 0.00 0.00 0.00 0.00 0.00 0.00 0.00 0.01 0.02 0.01 0.01 0.01 0.01 0.02 0.03 0.03 0.02 0.02 0.01 0.01 0.01 0.03 0.04 0.06 0.07 0.06 0.05 0.05 0.05 0.05 0.04 0.04 0.03 0.03 0.02 0.03 0.02 0.02
0.00 0.00 0.00 0.00 0.00 0.00 0.00 0.00 0.00 0.00 0.00 0.00 0.00 0.01 0.01 0.01 0.02 0.01 0.01 0.01 0.02 0.01 0.02 0.02 0.01 0.02 0.06 0.07 0.04 0.04 0.04 0.03 0.03 0.04 0.04 0.03 0.02 0.02 0.02 0.02 0.02 0.02 0.02 0.01
0.00 0.00 0.00 0.00 0.00 0.00 0.00 0.00 0.00 0.00 0.00 0.00 0.00 0.00 0.01 0.01 0.02 0.01 0.01 0.00 0.01 0.02 0.01 0.01 0.01 0.01 0.02 0.04 0.04 0.03 0.03 0.04 0.04 0.04 0.03 0.03 0.03 0.02 0.02 0.02 0.02 0.02 0.01 0.01
0.00 0.00 0.00 0.00 0.00 0.00 0.00 0.00 0.00 0.00 0.00 0.00 0.00 0.00 0.01 0.01 0.02 0.02 0.02 0.02 0.02 0.03 0.02 0.02 0.02 0.01 0.02 0.03 0.05 0.05 0.04 0.04 0.05 0.04 0.04 0.04 0.04 0.03 0.03 0.02 0.02 0.02 0.02 0.02
0.00 0.00 0.00 0.00 0.00 0.00 0.00 0.00 0.00 0.00 0.00 0.00 0.00 0.00 0.00 0.01 0.01 0.02 0.02 0.02 0.03 0.03 0.03 0.03 0.02 0.03 0.03 0.03 0.03 0.04 0.05 0.04 0.06 0.06 0.06 0.07 0.06 0.05 0.05 0.04 0.03 0.02 0.03 0.05
0.00 0.00 0.00 0.00 0.00 0.00 0.00 0.00 0.00 0.00 0.00 0.01 0.01 0.00 0.00 0.01 0.01 0.02 0.02 0.02 0.02 0.03 0.03 0.03 0.03 0.03 0.04 0.05 0.05 0.05 0.06 0.05 0.06 0.06 0.07 0.08 0.08 0.08 0.08 0.07 0.05 0.05 0.07 0.07
0.00 0.00 0.00 0.00 0.00 0.00 0.00 0.00 0.00 0.01 0.03 0.02 0.02 0.01 0.01 0.01 0.01 0.01 0.01 0.02 0.03 0.03 0.04 0.04 0.04 0.04 0.04 0.04 0.06 0.06 0.05 0.06 0.07 0.09 0.14 0.13 0.09 0.06 0.06 0.07 0.07 0.07 0.07 0.07
0.00 0.00 0.00 0.00 0.00 0.00 0.00 0.00 0.00 0.01 0.01 0.01 0.01 0.01 0.01 0.01 0.01 0.01 0.02 0.03 0.03 0.03 0.04 0.04 0.05 0.05 0.04 0.03 0.04 0.04 0.04 0.04 0.04 0.06 0.09 0.09 0.06 0.06 0.06 0.06 0.05 0.05 0.06 0.06
0.00 0.00 0.00 0.00 0.00 0.00 0.00 0.01 0.01 0.01 0.01 0.00 0.00 0.01 0.01 0.01 0.01 0.02 0.02 0.02 0.03 0.03 0.03 0.04 0.05 0.05 0.04 0.03 0.02 0.03 0.03 0.03 0.04 0.04 0.04 0.04 0.04 0.05 0.04 0.05 0.05 0.05 0.04 0.04
0.00 0.00 0.00 0.00 0.00 0.00 0.00 0.00 0.01 0.01 0.01 0.01 0.01 0.01 0.01 0.01 0.01 0.01 0.02 0.03 0.03 0.04 0.05 0.05 0.04 0.04 0.03 0.03 0.02 0.02 0.02 0.03 0.03 0.03 0.04 0.04 0.05 0.05 0.05 0.06 0.07 0.05 0.05 0.05
0.00 0.00 0.00 0.00 0.00 0.00 0.00 0.00 0.01 0.01 0.00 0.00 0.01 0.01 0.01 0.01 0.01 0.01 0.01 0.03 0.04 0.04 0.04 0.04 0.03 0.02 0.02 0.02 0.01 0.01 0.02 0.02 0.03 0.02 0.03 0.04 0.04 0.05 0.05 0.08 0.09 0.07 0.07 0.07
0.00 0.00 0.00 0.00 0.00 0.00 0.00 0.00 0.01 0.01 0.01 0.01 0.01 0.01 0.01 0.01 0.01 0.01 0.02 0.02 0.03 0.04 0.04 0.05 0.03 0.02 0.02 0.01 0.01 0.01 0.02 0.02 0.03 0.03 0.03 0.03 0.04 0.05 0.07 0.08 0.07 0.06 0.06 0.06
0.00 0.00 0.00 0.00 0.00 0.00 0.00 0.00 0.01 0.01 0.01 0.01 0.01 0.01 0.01 0.01 0.01 0.02 0.03 0.04 0.04 0.04 0.05 0.06 0.04 0.03 0.02 0.02 0.02 0.02 0.03 0.04 0.04 0.03 0.02 0.03 0.05 0.07 0.06 0.06 0.07 0.08 0.07 0.05
0.00 0.01 0.01 0.01 0.01 0.01 0.01 0.01 0.00 0.01 0.02 0.02 0.02 0.01 0.01 0.02 0.02 0.03 0.04 0.04 0.05 0.05 0.05 0.05 0.04 0.04 0.03 0.02 0.02 0.03 0.03 0.02 0.02 0.03 0.03 0.04 0.05 0.07 0.06 0.05 0.05 0.07 0.11 0.07
0.00 0.01 0.01 0.01 0.01 0.01 0.01 0.01 0.01 0.01 0.03 0.03 0.02 0.02 0.02 0.02 0.03 0.04 0.04 0.05 0.06 0.06 0.05 0.05 0.05 0.04 0.02 0.02 0.01 0.01 0.01 0.02 0.02 0.02 0.02 0.02 0.03 0.04 0.04 0.04 0.04 0.06 0.09 0.10
0.00 0.01 0.01 0.01 0.01 0.01 0.01 0.01 0.01 0.01 0.01 0.01 0.02 0.03 0.04 0.05 0.04 0.04 0.04 0.05 0.07 0.07 0.07 0.06 0.05 0.04 0.03 0.02 0.01 0.01 0.01 0.01 0.02 0.01 0.02 0.02 0.02 0.02 0.03 0.03 0.04 0.06 0.07 0.09
MSLP
1011.52 1012.32 1012.95 1013.37 1013.58 1013.61 1013.51 1013.33 1013.10 1012.85 1012.60 1012.34 1012.05 1011.74 1011.41 1011.07 1010.76 1010.49 1010.30 1010.19 1010.19 1010.26 1010.41 1010.59 1010.80 1011.02 1011.25 1011.49 1011.75 1012.04 1012.36 1012.73 1013.11 1013.49 1013.86 1014.17 1014.43 1014.63 1014.78 1014.89 1014.99 1015.11 1015.25 1015.44
1012.21 1012.81 1013.23 1013.49 1013.60 1013.62 1013.59 1013.53 1013.48 1013.41 1013.30 1013.11 1012.82 1012.42 1011.93 1011.38 1010.84 1010.36 1009.99 1009.77 1009.69 1009.76 1009.92 1010.15 1010.40 1010.65 1010.89 1011.13 1011.39 1011.69 1012.05 1012.46 1012.91 1013.37 1013.81 1014.19 1014.49 1014.68 1014.80 1014.85 1014.88 1014.92 1015.01 1015.17
1012.62 1012.99 1013.20 1013.30 1013.35 1013.39 1013.48 1013.63 1013.80 1013.96 1014.03 1013.95 1013.67 1013.19 1012.52 1011.75 1010.95 1010.23 1009.67 1009.30 1009.15 1009.19 1009.38 1009.65 1009.95 1010.24 1010.51 1010.77 1011.04 1011.36 1011.74 1012.19 1012.70 1013.23 1013.73 1014.16 1014.48 1014.68 1014.76 1014.76 1014.74 1014.72 1014.77 1014.91
1012.80 1012.93 1012.94 1012.91 1012.93 1013.05 1013.31 1013.70 1014.15 1014.57 1014.85 1014.88 1014.61 1014.03 1013.19 1012.17 1011.12 1010.15 1009.37 1008.85 1008.61 1008.62 1008.83 1009.15 1009.51 1009.85 1010.16 1010.45 1010.73 1011.06 1011.45 1011.93 1012.47 1013.04 1013.58 1014.04 1014.37 1014.56 1014.62 1014.59 1014.52 1014.47 1014.50 1014.63
1012.83 1012.74 1012.58 1012.47 1012.50 1012.74 1013.21 1013.86 1014.60 1015.28 1015.75 1015.89 1015.62 1014.94 1013.92 1012.66 1011.34 1010.12 1009.13 1008.46 1008.13 1008.12 1008.35 1008.71 1009.13 1009.53 1009.88 1010.19 1010.49 1010.81 1011.20 1011.67 1012.21 1012.78 1013.33 1013.79 1014.13 1014.31 1014.35 1014.30 1014.20 1014.13 1014.15 1014.28
1012.81 1012.55 1012.28 1012.13 1012.21 1012.58 1013.26 1014.17 1015.17 1016.07 1016.70 1016.92 1016.64 1015.86 1014.65 1013.17 1011.61 1010.17 1009.00 1008.19 1007.79 1007.75 1008.00 1008.42 1008.89 1009.34 1009.72 1010.05 1010.34 1010.64 1010.99 1011.43 1011.93 1012.47 1012.99 1013.43 1013.75 1013.92 1013.94 1013.88 1013.77 1013.70 1013.71 1013.84
1012.83 1012.46 1012.12 1011.97 1012.13 1012.64 1013.51 1014.62 1015.82 1016.89 1017.63 1017.88 1017.56 1016.68 1015.32 1013.65 1011.91 1010.30 1008.99 1008.09 1007.64 1007.59 1007.86 1008.31 1008.83 1009.32 1009.72 1010.04 1010.30 1010.56 1010.86 1011.23 1011.67 1012.14 1012.61 1013.01 1013.29 1013.43 1013.44 1013.36 1013.25 1013.18 1013.19 1013.33
1012.94 1012.51 1012.16 1012.04 1012.28 1012.91 1013.91 1015.16 1016.48 1017.63 1018.41 1018.66 1018.28 1017.31 1015.83 1014.05 1012.19 1010.48 1009.10 1008.17 1007.70 1007.67 1007.97 1008.45 1008.99 1009.49 1009.89 1010.19 1010.41 1010.60 1010.82 1011.11 1011.46 1011.85 1012.25 1012.59 1012.82 1012.93 1012.92 1012.83 1012.71 1012.63 1012.64 1012.77
1013.10 1012.67 1012.35 1012.29 1012.59 1013.30 1014.37 1015.67 1017.02 1018.17 1018.93 1019.12 1018.69 1017.65 1016.13 1014.30 1012.42 1010.71 1009.35 1008.44 1008.01 1008.01 1008.33 1008.84 1009.38 1009.87 1010.25 1010.49 1010.65 1010.77 1010.90 1011.10 1011.36 1011.67 1011.98 1012.25 1012.44 1012.51 1012.48 1012.37 1012.24 1012.14 1012.13 1012.24
1013.25 1012.87 1012.61 1012.62 1012.97 1013.71 1014.78 1016.06 1017.34 1018.41 1019.08 1019.21 1018.72 1017.66 1016.15 1014.38 1012.58 1010.96 1009.69 1008.88 1008.53 1008.58 1008.94 1009.45 1009.98 1010.43 1010.76 1010.95 1011.03 1011.07 1011.12 1011.23 1011.41 1011.64 1011.88 1012.10 1012.23 1012.27 1012.20 1012.07 1011.92 1011.80 1011.76 1011.83
1013.29 1013.01 1012.85 1012.93 1013.32 1014.04 1015.05 1016.21 1017.36 1018.29 1018.84 1018.87 1018.35 1017.32 1015.90 1014.26 1012.63 1011.20 1010.12 1009.45 1009.22 1009.35 1009.73 1010.23 1010.73 1011.13 1011.39 1011.51 1011.52 1011.49 1011.48 1011.52 1011.64 1011.81 1012.00 1012.17 1012.27 1012.27 1012.18 1012.02 1011.84 1011.69 1011.60 1011.62
1013.21 1013.05 1013.00 1013.15 1013.55 1014.23 1015.13 1016.14 1017.10 1017.85 1018.24 1018.18 1017.65 1016.68 1015.40 1013.98 1012.59 1011.42 1010.56 1010.09 1009.99 1010.20 1010.61 1011.10 1011.55 1011.89 1012.08 1012.13 1012.08 1012.00 1011.95 1011.95 1012.04 1012.18 1012.34 1012.48 1012.56 1012.55 1012.44 1012.26 1012.05 1011.86 1011.73 1011.70
1013.01 1013.00 1013.07 1013.28 1013.69 1014.30 1015.06 1015.87 1016.62 1017.16 1017.39 1017.24 1016.71 1015.84 1014.74 1013.56 1012.46 1011.56 1010.97 1010.71 1010.76 1011.05 1011.48 1011.94 1012.34 1012.62 1012.75 1012.75 1012.67 1012.57 1012.50 1012.50 1012.58 1012.72 1012.88 1013.02 1013.10 1013.08 1012.97 1012.78 1012.55 1012.33 1012.16 1012.08
1012.79 1012.92 1013.11 1013.38 1013.79 1014.31 1014.91 1015.52 1016.04 1016.36 1016.42 1016.18 1015.65 1014.88 1013.97 1013.04 1012.23 1011.61 1011.27 1011.21 1011.40 1011.77 1012.22 1012.66 1013.02 1013.24 1013.33 1013.31 1013.22 1013.13 1013.08 1013.11 1013.22 1013.38 1013.57 1013.73 1013.82 1013.82 1013.72 1013.53 1013.30 1013.07 1012.88 1012.76
1012.68 1012.94 1013.22 1013.54 1013.92 1014.35 1014.79 1015.19 1015.47 1015.58 1015.48 1015.14 1014.60 1013.92 1013.17 1012.47 1011.90 1011.54 1011.41 1011.53 1011.83 1012.26 1012.73 1013.16 1013.49 1013.69 1013.78 1013.76 1013.70 1013.66 1013.66 1013.74 1013.90 1014.11 1014.34 1014.53 1014.66 1014.69 1014.61 1014.45 1014.24 1014.02 1013.82 1013.70
1012.79 1013.14 1013.49 1013.84 1014.18 1014.50 1014.78 1014.97 1015.03 1014.93 1014.65 1014.21 1013.65 1013.01 1012.39 1011.86 1011.48 1011.32 1011.36 1011.61 1012.00 1012.48 1012.97 1013.39 1013.72 1013.94 1014.04 1014.08 1014.09 1014.11 1014.20 1014.35 1014.58 1014.85 1015.12 1015.36 1015.53 1015.60 1015.57 1015.46 1015.29 1015.10 1014.93 1014.80
1013.18 1013.59 1013.96 1014.29 1014.58 1014.78 1014.90 1014.89 1014.74 1014.45 1014.01 1013.46 1012.85 1012.23 1011.67 1011.25 1011.01 1010.96 1011.12 1011.45 1011.90 1012.41 1012.92 1013.36 1013.71 1013.97 1014.14 1014.25 1014.36 1014.48 1014.66 1014.91 1015.21 1015.54 1015.87 1016.16 1016.38 1016.50 1016.53 1016.48 1016.37 1016.23 1016.10 1016.00
1013.85 1014.25 1014.60 1014.88 1015.08 1015.17 1015.13 1014.94 1014.61 1014.14 1013.56 1012.90 1012.23 1011.59 1011.06 1010.69 1010.51 1010.53 1010.74 1011.11 1011.59 1012.11 1012.64 1013.11 1013.51 1013.83 1014.09 1014.32 1014.53 1014.77 1015.06 1015.39 1015.77 1016.16 1016.55 1016.88 1017.15 1017.34 1017.43 1017.45 1017.41 1017.34 1017.27 1017.21
1014.67 1015.00 1015.28 1015.49 1015.58 1015.55 1015.37 1015.04 1014.56 1013.96 1013.26 1012.52 1011.79 1011.13 1010.59 1010.23 1010.07 1010.10 1010.32 1010.70 1011.17 1011.70 1012.24 1012.75 1013.21 1013.61 1013.97 1014.31 1014.65 1015.00 1015.39 1015.81 1016.26 1016.71 1017.13 1017.52 1017.83 1018.08 1018.24 1018.34 1018.38 1018.39 1018.38 1018.37
1015.47 1015.70 1015.88 1015.97 1015.96 1015.81 1015.53 1015.09 1014.51 1013.82 1013.06 1012.27 1011.51 1010.83 1010.29 1009.93 1009.76 1009.78 1009.98 1010.33 1010.79 1011.31 1011.86 1012.40 1012.91 1013.40 1013.86 1014.30 1014.75 1015.21 1015.69 1016.18 1016.68 1017.17 1017.63 1018.05 1018.41 1018.71 1018.94 1019.12 1019.24 1019.33 1019.39 1019.43
1016.08 1016.18 1016.23 1016.21 1016.09 1015.86 1015.50 1015.00 1014.39 1013.68 1012.91 1012.12 1011.38 1010.72 1010.19 1009.83 1009.65 1009.65 1009.82 1010.14 1010.56 1011.07 1011.61 1012.17 1012.73 1013.28 1013.81 1014.35 1014.88 1015.41 1015.96 1016.50 1017.04 1017.56 1018.05 1018.49 1018.90 1019.25 1019.54 1019.79 1019.99 1020.16 1020.29 1020.38
1016.38 1016.34 1016.26 1016.13 1015.93 1015.64 1015.24 1014.75 1014.15 1013.49 1012.77 1012.06 1011.38 1010.77 1010.29 1009.95 1009.78 1009.77 1009.92 1010.19 1010.58 1011.05 1011.58 1012.14 1012.72 1013.30 1013.88 1014.47 1015.05 1015.63 1016.21 1016.79 1017.34 1017.88 1018.38 1018.86 1019.29 1019.69 1020.05 1020.36 1020.64 1020.88 1021.07 1021.22
1016.35 1016.17 1015.98 1015.76 1015.49 1015.17 1014.79 1014.34 1013.82 1013.25 1012.65 1012.05 1011.48 1010.98 1010.58 1010.30 1010.15 1010.15 1010.27 1010.52 1010.87 1011.30 1011.80 1012.33 1012.90 1013.48 1014.08 1014.67 1015.28 1015.87 1016.46 1017.04 1017.60 1018.14 1018.65 1019.15 1019.61 1020.05 1020.46 1020.84 1021.19 1021.49 1021.75 1021.96
1016.04 1015.75 1015.46 1015.17 1014.87 1014.56 1014.22 1013.84 1013.43 1013.00 1012.54 1012.09 1011.67 1011.30 1011.00 1010.80 1010.70 1010.72 1010.84 1011.06 1011.38 1011.76 1012.21 1012.71 1013.24 1013.79 1014.37 1014.95 1015.53 1016.11 1016.69 1017.26 1017.81 1018.34 1018.86 1019.37 1019.86 1020.34 1020.80 1021.24 1021.65 1022.02 1022.34 1022.60
1015.59 1015.21 1014.85 1014.52 1014.21 1013.92 1013.64 1013.36 1013.07 1012.77 1012.47 1012.18 1011.90 1011.67 1011.48 1011.37 1011.33 1011.38 1011.51 1011.71 1011.99 1012.34 1012.74 1013.18 1013.66 1014.17 1014.70 1015.24 1015.79 1016.34 1016.89 1017.43 1017.97 1018.50 1019.02 1019.54 1020.06 1020.57 1021.08 1021.57 1022.03 1022.46 1022.83 1023.15
1015.15 1014.72 1014.32 1013.96 1013.66 1013.40 1013.17 1012.97 1012.79 1012.61 1012.44 1012.28 1012.13 1012.01 1011.93 1011.89 1011.91 1011.99 1012.13 1012.34 1012.59 1012.90 1013.26 1013.65 1014.08 1014.54 1015.02 1015.51 1016.02 1016.53 1017.04 1017.56 1018.08 1018.60 1019.13 1019.67 1020.21 1020.76 1021.30 1021.83 1022.34 1022.82 1023.25 1023.62
Thickness
5787 5775 5768 5775 5781 5783 5781 5777 5775 5784 5800 5797 5791 5792 5800 5807 5806 5803 5801 5801 5801 5803 5806 5803 5801 5798 5793 5788 5784 5781 5777 5774 5771 5766 5762 5758 5755 5755 5754 5752 5751 5749 5747 5745
5766 5764 5778 5783 5783 5782 5779 5774 5774 5783 5795 5793 5787 5789 5800 5805 5807 5808 5805 5804 5804 5803 5802 5802 5800 5798 5794 5790 5787 5783 5779 5776 5772 5769 5766 5762 5758 5756 5754 5753 5751 5750 5748 5746
5760 5769 5781 5779 5776 5774 5773 5771 5774 5777 5784 5787 5785 5779 5790 5802 5806 5808 5809 5809 5808 5806 5803 5802 5800 5798 5796 5792 5790 5787 5782 5778 5774 5771 5766 5762 5758 5755 5753 5752 5751 5750 5748 5746
5760 5772 5775 5773 5771 5772 5763 5780 5780 5778 5767 5756 5770 5751 5777 5789 5794 5801 5805 5808 5810 5810 5809 5804 5802 5800 5798 5797 5794 5789 5785 5780 5776 5772 5767 5762 5756 5752 5752 5752 5751 5750 5748 5747
5755 5768 5769 5766 5772 5775 5773 5783 5778 5773 5762 5752 5758 5750 5762 5780 5785 5796 5804 5809 5812 5813 5812 5808 5807 5804 5802 5799 5795 5790 5785 5780 5776 5772 5768 5763 5759 5756 5754 5753 5751 5750 5749 5748
5757 5771 5775 5775 5782 5782 5779 5769 5759 5748 5742 5732 5749 5745 5750 5768 5785 5796 5805 5810 5813 5814 5813 5811 5809 5806 5801 5799 5795 5790 5785 5781 5777 5772 5768 5764 5760 5756 5753 5752 5750 5750 5749 5748
5747 5760 5773 5780 5771 5772 5767 5743 5721 5721 5712 5720 5743 5743 5751 5781 5794 5800 5804 5808 5812 5814 5812 5809 5807 5804 5800 5797 5794 5790 5785 5781 5777 5772 5767 5764 5760 5758 5755 5753 5752 5750 5749 5748
5727 5731 5760 5772 5768 5758 5756 5745 5719 5710 5708 5718 5737 5738 5762 5789 5798 5804 5806 5809 5810 5810 5809 5807 5807 5803 5800 5796 5793 5790 5785 5781 5778 5773 5769 5765 5761 5759 5758 5756 5755 5753 5752 5751
5720 5728 5760 5771 5775 5765 5747 5740 5742 5719 5717 5717 5725 5743 5767 5790 5794 5798 5801 5803 5805 5807 5807 5807 5806 5804 5800 5797 5794 5790 5785 5781 5778 5775 5772 5768 5764 5762 5760 5759 5756 5755 5754 5752
5730 5728 5749 5762 5767 5760 5756 5741 5724 5713 5702 5705 5723 5733 5744 5770 5780 5788 5793 5796 5801 5805 5805 5804 5804 5803 5800 5798 5794 5789 5786 5782 5780 5777 5774 5772 5768 5765 5762 5760 5757 5755 5754 5753
5734 5723 5733 5745 5747 5744 5742 5734 5721 5708 5712 5702 5707 5726 5763 5769 5777 5781 5787 5793 5797 5800 5801 5801 5801 5800 5798 5796 5792 5787 5784 5781 5778 5776 5774 5771 5768 5766 5763 5760 5758 5756 5755 5753
5726 5712 5710 5729 5748 5755 5750 5738 5726 5716 5707 5705 5706 5724 5772 5774 5779 5782 5786 5791 5795 5797 5798 5797 5796 5794 5793 5790 5788 5785 5782 5780 5778 5776 5774 5770 5768 5765 5763 5760 5759 5757 5755 5753
5722 5707 5698 5709 5723 5738 5739 5735 5731 5720 5705 5698 5705 5729 5767 5771 5776 5781 5784 5787 5790 5791 5792 5791 5789 5788 5786 5785 5784 5782 5780 5779 5777 5774 5771 5768 5765 5763 5761 5759 5758 5756 5754 5752
5727 5704 5700 5699 5710 5725 5731 5731 5727 5721 5705 5703 5714 5732 5752 5761 5766 5773 5778 5782 5783 5783 5784 5784 5782 5782 5782 5780 5779 5778 5777 5777 5774 5772 5769 5765 5763 5761 5759 5758 5757 5755 5753 5750
5719 5703 5709 5715 5726 5730 5733 5732 5728 5728 5721 5716 5725 5731 5748 5757 5762 5767 5772 5775 5776 5776 5777 5777 5777 5777 5777 5776 5776 5775 5773 5772 5771 5769 5766 5764 5762 5760 5757 5755 5754 5752 5750 5748
5706 5700 5705 5709 5719 5726 5725 5727 5728 5730 5727 5728 5731 5734 5753 5757 5760 5762 5765 5767 5768 5769 5771 5772 5772 5772 5772 5773 5773 5771 5769 5768 5767 5765 5763 5761 5758 5756 5754 5752 5750 5747 5746 5744
5692 5694 5688 5689 5707 5714 5704 5718 5722 5724 5728 5729 5727 5737 5746 5749 5753 5756 5758 5761 5762 5764 5766 5766 5766 5767 5768 5768 5768 5766 5765 5764 5761 5760 5758 5756 5753 5752 5750 5748 5745 5743 5741 5740
5688 5680 5674 5678 5693 5682 5702 5724 5727 5724 5725 5731 5735 5739 5743 5747 5750 5752 5755 5756 5758 5760 5760 5762 5762 5761 5761 5762 5762 5761 5760 5758 5756 5755 5753 5752 5750 5747 5744 5742 5740 5738 5737 5735
5687 5680 5667 5663 5670 5682 5703 5717 5720 5716 5717 5729 5731 5735 5738 5742 5743 5742 5749 5752 5754 5756 5757 5757 5758 5756 5755 5754 5754 5754 5753 5751 5750 5748 5747 5746 5745 5742 5739 5737 5735 5733 5732 5730
5675 5675 5665 5659 5664 5666 5693 5716 5724 5718 5707 5727 5729 5729 5732 5735 5727 5733 5743 5746 5748 5749 5750 5750 5750 5749 5747 5747 5748 5747 5746 5745 5743 5743 5742 5741 5739 5737 5734 5732 5730 5729 5727 5725
5660 5658 5656 5655 5660 5670 5696 5709 5715 5696 5704 5725 5727 5727 5727 5728 5730 5735 5737 5739 5740 5741 5742 5743 5743 5741 5740 5741 5741 5740 5739 5737 5738 5737 5736 5735 5733 5731 5729 5728 5726 5723 5721 5719
5650 5648 5646 5647 5652 5664 5695 5700 5697 5700 5713 5718 5721 5723 5722 5723 5726 5728 5730 5731 5733 5732 5733 5733 5733 5733 5733 5734 5734 5733 5731 5731 5731 5731 5729 5727 5726 5725 5724 5722 5719 5717 5714 5712
5645 5649 5648 5653 5659 5675 5685 5690 5697 5701 5705 5710 5713 5716 5716 5716 5716 5718 5720 5722 5723 5723 5723 5724 5724 5724 5724 5725 5726 5724 5723 5724 5724 5722 5720 5719 5719 5717 5716 5714 5712 5710 5707 5705
5642 5644 5645 5650 5661 5671 5679 5686 5691 5696 5700 5705 5707 5709 5710 5708 5709 5709 5709 5712 5713 5714 5714 5715 5715 5715 5714 5715 5716 5716 5716 5716 5716 5713 5711 5710 5709 5708 5706 5705 5704 5702 5700 5697
5636 5638 5639 5643 5655 5664 5672 5677 5682 5687 5693 5696 5699 5700 5701 5702 5701 5701 5701 5702 5704 5705 5705 5706 5705 5704 5704 5704 5706 5707 5708 5708 5706 5704 5702 5701 5700 5698 5696 5694 5692 5691 5690 5690
5628 5632 5635 5639 5650 5653 5660 5670 5675 5678 5682 5686 5689 5690 5692 5694 5693 5692 5692 5693 5694 5696 5697 5696 5696 5696 5695 5695 5696 5697 5698 5698 5697 5695 5693 5692 5691 5689 5688 5686 5682 5679 5679 5679